Location: *
(33.8649°S, 62.1526°E)
Time: 09:11:49
(UTC+00:00)

Tiangong - Pass Details

Date: 22 September 2021
Orbit: 382 x 385 km, 41.5° (Epoch: 17 October)

Event Time Altitude Azimuth Distance (km) Brightness Sun altitude
Rises 14:40:52 0° 286° (WNW) 2,278 6.3 -11.8°
Reaches altitude 10° 14:42:58 10° 281° (W) 1,427 5.2 -12.2°
Maximum altitude 14:46:08 53° 203° (SSW) 494 1.8 -12.9°
Enters shadow 14:48:32 16° 128° (SE) 1,129 3.0 -13.4°
